Location: Bouchavesnes-Bergen
(49.9859°N, 2.9203°E)
Time: 00:05:46
(UTC+00:00)

SL-16 R/B - Pass Details

Date: 09 March 2021
Orbit: 840 x 850 km, 71.0° (Epoch: 13 April)

Event Time Altitude Azimuth Distance (km) Brightness Sun altitude
Rises 04:21:32 0° 333° (NNW) 3,426 5.3 -18.9°
Reaches altitude 10° 04:24:23 10° 346° (NNW) 2,488 4.7 -18.4°
Maximum altitude 04:29:11 27° 43° (NE) 1,586 4.2 -17.7°
Drops below altitude 10° 04:33:59 10° 100° (E) 2,478 5.7 -16.9°
Sets 04:36:48 0° 113° (ESE) 3,410 6.3 -16.5°
